Regional Weather Roundup
Issued by NWS

Home | Current Version | Previous Version | Text Only | Print | Product List | Glossary On
Versions: 1 2 3 4 5 6 7 8 9 10 11 12 13 14 15 16 17 18 19 20 21 22 23 24 25 26 27 28 29 30 31 32 33 34 35 36 37 38 39 40 41 42 43 44 45 46 47 48 49 50
000
ASUS43 KDMX 310207
RWRIA

WEATHER ROUNDUP FOR IOWA
NATIONAL WEATHER SERVICE DES MOINES IA
900 PM CDT THU JUL 30 2015

NOTE: "FAIR" INDICATES FEW OR NO CLOUDS BELOW 12,000 FEET WITH NO
SIGNIFICANT WEATHER AND/OR OBSTRUCTIONS TO VISIBILITY.

* - THESE STATIONS ARE NOT NWS STATIONS...THUS NOT UNDER NWS
QUALITY CONTROL.  THEY ALSO DO NOT REPORT WEATHER SUCH
AS PRECIPITATION OR FOG.

IAZ001>003-012>014-020>022-031>034-043>046-310300-
   NORTHWEST IOWA

CITY           SKY/WX    TMP DP  RH WIND       PRES   REMARKS
CARROLL *      CLEAR     72  66  83 SW7       30.10S
CHEROKEE *     CLEAR     75  72  88 CALM      30.09S
DENISON *      CLEAR     75  66  73 CALM      30.09S HAZE
LE MARS *      CLEAR     77  73  88 CALM      30.10S
ORANGE CITY *  CLEAR     75  66  73 CALM      30.11R
SHELDON *      CLEAR     72  70  94 SW3       30.09S
SIOUX CITY     CLEAR     80  71  74 CALM      30.09R HX  84
SPENCER        CLEAR     74  67  78 SW7       30.09S
STORM LAKE *   CLEAR     75  70  83 SW5       30.11S
$$

IAZ055>058-069>071-079>083-090>094-310300-
   SOUTHWEST IOWA

CITY           SKY/WX    TMP DP  RH WIND       PRES   REMARKS
ATLANTIC *     CLEAR     75  70  83 CALM      30.11S
AUDUBON *      CLEAR     72  66  83 SW3       30.13S
CLARINDA *     CLEAR     75  73  94 CALM      30.13S
COUNCIL BLFS * CLEAR     79  64  61 SW5       30.12R HX  81
CRESTON *      CLEAR     75  68  78 SW6       30.14S
HARLAN  *      CLEAR     73  73 100 CALM      30.15S
LAMONI         CLEAR     77  67  71 SW6       30.12F
RED OAK *      CLEAR     75  70  83 CALM      30.12R
SHENANDOAH *   CLEAR     75  72  88 S6        30.12S
$$

IAZ047>049-059>061-072>074-084-310300-
   CENTRAL IOWA

CITY           SKY/WX    TMP DP  RH WIND       PRES   REMARKS
AMES           CLEAR     71  67  87 SW7       30.08S
ANKENY *       CLEAR     77  64  65 W6        30.09S
CHARITON *     CLEAR     77  64  65 SW5       30.11S
DES MOINES     PTCLDY    77  64  64 W6        30.09S
GRINNELL*      CLEAR     73  64  73 SW6       30.09S
KNOXVILLE *    CLEAR     75  64  69 SW6       30.08F
MARSHALLTOWN   CLEAR     75  69  81 W6        30.07S
PELLA *        CLEAR     73  70  88 W3        30.10S
PERRY *          N/A     73  70  88 SW7       30.09S
$$

IAZ004>006-015-016-023>025-035-036-310300-
   NORTH CENTRAL IOWA

CITY           SKY/WX    TMP DP  RH WIND       PRES   REMARKS
ALGONA *       CLEAR     73  68  83 W6        30.08S
CLARION *      CLEAR     72  70  94 SW7       30.08S
ESTHERVILLE    CLEAR     71  65  81 SW7       30.08S
FORT DODGE *   CLEAR     72  66  83 CALM      30.09S
MASON CITY     CLEAR     75  66  73 W5        30.08S
FOREST CITY *  CLEAR     73  64  73 CALM      30.07S
IOWA FALLS *     N/A     72  66  83 W5        30.09S
$$

IAZ007>011-017>019-026>030-037>042-050>054-066-310300-
   NORTHEAST IOWA

CITY           SKY/WX    TMP DP  RH WIND       PRES   REMARKS
CEDAR RAPIDS   CLEAR     71  68  90 W6        30.06S
CHARLES CITY * CLEAR     70  68  94 W3        30.07S
CLINTON *      CLEAR     70  66  88 NW7       30.07S
DECORAH *      CLEAR     73  61  64 CALM      30.04S
DUBUQUE        CLEAR     72  61  68 W5        30.06S
MONTICELLO *   CLEAR     70  66  88 CALM      30.05S
OELWEIN *      CLEAR     70  68  94 W3        30.07S
WATERLOO       CLEAR     76  67  73 SW3       30.05S
$$

IAZ064-065-067-068-078-310300-
   EAST CENTRAL IOWA

CITY           SKY/WX    TMP DP  RH WIND       PRES   REMARKS
DAVENPORT      CLEAR     72  68  87 W5        30.06R
IOWA CITY      CLEAR     76  69  79 W6        30.07S
MT. PLEASANT * CLEAR     75  63  64 W3        30.08S
MUSCATINE *    CLEAR     75  68  78 SW5       30.06S
QUAD CITIES    CLEAR     75  66  73 SW5       30.05R
$$

IAZ062-063-075>077-085>089-095>099-310300-
   SOUTHEAST IOWA

CITY           SKY/WX    TMP DP  RH WIND       PRES   REMARKS
BURLINGTON     CLEAR     74  67  78 W3        30.08R
FAIRFIELD *    CLEAR     73  64  73 W3        30.09S
FORT MADISON * CLEAR     73  66  78 CALM      30.09S
KEOKUK *       CLEAR     77  68  73 W6        30.08S
OSKALOOSA *      N/A     72  68  88 W5        30.09S
CENTERVILLE *  CLEAR     73  68  83 SW5       30.13S
OTTUMWA        CLEAR     71  66  84 W6        30.07S
WASHINGTON *   CLEAR     73  68  83 CALM      30.09S
$$

ABBREVIATIONS USED IN REMARKS
   TC - TEMPERATURES IN CELSIUS
  WCI - WIND CHILL INDEX
   HX - HEAT INDEX
  VSB - VISIBILITY
$$




USA.gov is the U.S. government's official web portal to all federal, state and local government web resources and services.